Location: Colorado Springs
(38.8340°N, 104.8210°W)
Time: 20:03:15
(UTC-06:00)

Vanguard 1 Rocket - All Passes

Search period start: 16 August 2018 00:00
Search period end: 26 August 2018 00:00
Orbit: 650 x 4226 km, 34.3° (Epoch: 16 August)

Date Brightness Start Highest point End Pass type
(mag) Time Alt. Az. Time Alt. Az. Time Alt. Az.
16 Aug - 01:18:40 10° SW 01:32:35 53° SE 01:55:47 10° E visible
16 Aug - 03:43:48 10° WSW 04:03:08 77° S 04:29:40 10° E visible
16 Aug - 06:12:28 10° W 06:36:39 72° SSW 07:00:16 10° ESE daylight
16 Aug - 08:44:26 10° WNW 09:07:47 44° SW 09:25:44 10° SSE daylight
16 Aug - 11:27:10 10° WSW 11:34:07 12° WSW 11:40:16 10° SW daylight
17 Aug - 00:09:00 10° SSW 00:20:19 37° SE 00:39:10 10° E visible
17 Aug - 02:32:08 10° WSW 02:48:27 70° SSE 03:14:21 10° E visible
17 Aug - 04:59:13 10° W 05:21:07 77° S 05:46:50 10° ESE visible
17 Aug - 07:29:21 10° W 07:53:50 57° SSW 08:14:52 10° SE daylight
17 Aug - 10:04:46 10° W 10:22:17 24° SW 10:36:06 10° S daylight
17 Aug - 23:00:46 10° S 23:09:07 22° SE 23:21:31 10° E visible
18 Aug - 01:21:16 10° SW 01:34:50 59° SSE 01:58:24 10° E visible
18 Aug - 03:46:45 10° W 04:05:43 78° S 04:32:20 10° E visible
18 Aug - 06:15:20 10° W 06:38:59 68° SSW 07:02:45 10° SE daylight
18 Aug - 08:47:31 10° W 09:09:34 38° SW 09:27:23 10° SSE daylight
19 Aug - 00:11:16 10° SSW 00:22:25 44° SE 00:41:59 10° E visible
19 Aug - 02:35:02 10° WSW 02:51:00 74° SSE 03:16:57 10° E visible
19 Aug - 05:02:10 10° W 05:23:38 75° SSW 05:49:25 10° ESE visible
19 Aug - 07:32:15 10° W 07:55:50 51° SW 08:16:54 10° SSE daylight
19 Aug - 10:09:22 10° W 10:23:53 19° SW 10:36:08 10° SSW daylight
19 Aug - 23:02:24 10° S 23:11:05 28° SE 23:25:01 10° E visible
20 Aug - 01:24:02 10° SW 01:37:16 65° SSE 02:00:58 10° E visible
20 Aug - 03:49:45 10° W 04:08:21 78° S 04:34:58 10° ESE visible
20 Aug - 06:18:14 10° W 06:41:14 62° SSW 07:05:01 10° SE daylight
20 Aug - 08:50:55 10° W 09:11:16 31° SW 09:28:36 10° S daylight
20 Aug - 21:56:04 10° SSE 22:00:32 13° ESE 22:06:07 10° E visible
21 Aug - 00:13:48 10° SW 00:24:41 50° SE 00:44:39 10° E visible
21 Aug - 02:38:01 10° WSW 02:53:38 76° S 03:19:33 10° E visible
21 Aug - 05:05:08 10° W 05:26:06 71° SSW 05:51:52 10° ESE visible
21 Aug - 07:35:17 10° W 07:57:45 44° SW 08:18:37 10° SSE daylight
21 Aug - 10:15:44 10° W 10:25:31 14° WSW 10:34:24 10° SSW daylight
21 Aug - 23:04:28 10° SSW 23:13:10 33° SE 23:28:07 10° E visible
22 Aug - 01:26:56 10° WSW 01:39:50 69° SSE 02:03:31 10° E visible
22 Aug - 03:52:47 10° W 04:10:59 76° S 04:37:30 10° ESE visible
22 Aug - 06:21:11 10° W 06:43:23 56° SSW 07:07:04 10° SE daylight
22 Aug - 08:54:48 10° W 09:12:58 25° SW 09:29:11 10° S daylight
22 Aug - 21:56:41 10° SSE 22:02:33 18° SE 22:10:49 10° E visible
23 Aug - 00:16:31 10° SW 00:27:07 56° SSE 00:47:15 10° E visible
23 Aug - 02:41:04 10° W 02:56:21 77° S 03:22:07 10° E visible
23 Aug - 05:08:07 10° W 05:28:31 66° SSW 05:54:08 10° SE visible
23 Aug - 07:38:31 10° W 07:59:36 38° SW 08:19:57 10° SSE daylight
23 Aug - 23:06:51 10° SSW 23:15:26 40° SE 23:30:59 10° E visible
24 Aug - 01:29:56 10° WSW 01:42:32 73° SSE 02:06:04 10° E visible
24 Aug - 03:55:49 10° W 04:13:35 73° SSW 04:39:56 10° ESE visible
24 Aug - 06:24:13 10° W 06:45:29 50° SSW 07:08:49 10° SSE daylight
24 Aug - 08:59:32 10° W 09:14:41 20° SW 09:28:51 10° SSW daylight
24 Aug - 21:58:17 10° S 22:04:41 23° SE 22:14:33 10° E visible
25 Aug - 00:19:23 10° SW 00:29:42 62° SSE 00:49:49 10° E visible
25 Aug - 02:44:09 10° W 02:59:04 77° S 03:24:37 10° ESE visible
25 Aug - 05:11:08 10° W 05:30:51 60° SSW 05:56:11 10° SE visible
25 Aug - 07:42:06 10° W 08:01:27 31° SW 08:20:48 10° S daylight
25 Aug - 23:09:28 10° SW 23:17:52 46° SSE 23:33:44 10° E visible
